Regional Weather Roundup
Issued by NWS

Home | Current Version | Previous Version | Graphics & Text | Print | Product List | Glossary Off
Versions: 1 2 3 4 5 6 7 8 9 10 11 12 13 14 15 16 17 18 19 20 21 22 23 24 25 26 27 28 29 30 31 32 33 34 35 36 37 38 39 40 41 42 43 44 45 46 47 48 49 50

000
ASUS43 KDMX 270901
RWRIA

WEATHER ROUNDUP FOR IOWA
NATIONAL WEATHER SERVICE DES MOINES IA
400 AM CDT THU APR 27 2017

NOTE: "FAIR" INDICATES FEW OR NO CLOUDS BELOW 12,000 FEET WITH NO
SIGNIFICANT WEATHER AND/OR OBSTRUCTIONS TO VISIBILITY.

* - THESE STATIONS ARE NOT NWS STATIONS...THUS NOT UNDER NWS
QUALITY CONTROL.  THEY ALSO DO NOT REPORT WEATHER SUCH
AS PRECIPITATION OR FOG.

IAZ001>003-012>014-020>022-031>034-043>046-271000-
   NORTHWEST IOWA

CITY           SKY/WX    TMP DP  RH WIND       PRES   REMARKS
CARROLL *      CLOUDY    34  32  93 NW17G24   29.61R WCI  23
CHEROKEE *     CLOUDY    32  29  88 NW8       29.62S WCI  25
DENISON *      CLOUDY    34  30  86 NW9G15    29.64R WCI  26
LE MARS *      CLOUDY    34  27  75 NW13      29.64F WCI  25
ORANGE CITY *  CLOUDY    30  28  93 NW12      29.61F WCI  21
SHELDON *      CLOUDY    30  27  86 NW16      29.60S WCI  19
SIOUX CITY     MOCLDY    33  28  81 NW10      29.64F WCI  25
SPENCER        CLOUDY    31  28  89 NW13      29.60S WCI  21
STORM LAKE *   CLOUDY    30  28  93 NW14      29.60S WCI  20
$$

IAZ055>058-069>071-079>083-090>094-271000-
   SOUTHWEST IOWA

CITY           SKY/WX    TMP DP  RH WIND       PRES   REMARKS
ATLANTIC *     CLOUDY    36  30  80 NW12      29.63R WCI  27
AUDUBON *      CLOUDY    36  30  80 NW9       29.62R WCI  29
CLARINDA *     CLOUDY    41  32  70 NW6G12    29.67R
COUNCIL BLFS * CLOUDY    37  32  81 NW14G22   29.64R WCI  29
CRESTON *      CLOUDY    37  30  75 NW13G18   29.63R WCI  29
HARLAN  *      CLOUDY    36  30  80 NW10      29.66R WCI  28
LAMONI         CLOUDY    39  32  76 NW18G28   29.60S WCI  30
RED OAK *      CLOUDY    39  32  75 NW10G18   29.64S WCI  32
SHENANDOAH *   CLOUDY    41  32  70 NW10G17   29.66R
$$

IAZ047>049-059>061-072>074-084-271000-
   CENTRAL IOWA

CITY           SKY/WX    TMP DP  RH WIND       PRES   REMARKS
AMES           CLOUDY    36  32  85 NW10      29.58R WCI  28
ANKENY *       CLOUDY    37  32  81 NW14G25   29.59S WCI  29
BOONE *        CLOUDY    34  30  86 NW16G22   29.58R WCI  23
CHARITON *     CLOUDY    37  34  87 W13G18    29.58R WCI  29
DES MOINES     DRIZZLE   38  33  82 NW17      29.58S WCI  28
GRINNELL*      CLOUDY    37  33  86 NW13      29.56R WCI  28
KNOXVILLE *    CLOUDY    39  34  81 NW13G20   29.56R WCI  32
MARSHALLTOWN   CLOUDY    36  33  89 NW21      29.53S WCI  25
NEWTON *       CLOUDY    37  32  81 NW14      29.55S WCI  29
PELLA *        CLOUDY    38  33  80 NW13      29.57S WCI  30
PERRY *        CLOUDY    35  33  92 NW9       29.61R WCI  28
$$

IAZ004>006-015-016-023>025-035-036-271000-
   NORTH CENTRAL IOWA

CITY           SKY/WX    TMP DP  RH WIND       PRES   REMARKS
ALGONA *       CLOUDY    32  30  93 NW15G22   29.58S WCI  22
CLARION *      CLOUDY    34  34 100 NW15      29.57R WCI  24
ESTHERVILLE    CLOUDY    30  28  92 NW17      29.59R WCI  18
FORT DODGE *   CLOUDY    34  27  75 NW10      29.60S WCI  26
MASON CITY     CLOUDY    33  31  92 NW17      29.55F WCI  22
FOREST CITY *  CLOUDY    32  30  93 NW13G18   29.55F WCI  22
WEBSTER CITY * CLOUDY    34  30  86 NW17      29.56R WCI  23
IOWA FALLS *   CLOUDY    35  32  90 NW20      29.56S WCI  24
$$

IAZ007>011-017>019-026>030-037>042-050>054-066-271000-
   NORTHEAST IOWA

CITY           SKY/WX    TMP DP  RH WIND       PRES   REMARKS
CEDAR RAPIDS   LGT RAIN  36  35  96 NW12      29.51R WCI  28
CHARLES CITY * CLOUDY    37  34  87 NW16G23   29.51S WCI  28
CLINTON *      RAIN      41  39  93 NW21      29.44S
DECORAH *      CLOUDY    37  34  87 NW16      29.44F WCI  28
DUBUQUE        RAIN      39  38  96 NW9       29.44R FOG     WCI  33
MONTICELLO *   RAIN      39  37  93 W14G20    29.48R WCI  31
OELWEIN *      CLOUDY    37  36  93 NW17      29.49R WCI  28
WATERLOO       CLOUDY    38  32  79 NW10      29.50S WCI  31
$$

IAZ064-065-067-068-078-271000-
   EAST CENTRAL IOWA

CITY           SKY/WX    TMP DP  RH WIND       PRES   REMARKS
DAVENPORT      LGT RAIN  41  39  93 W20       29.46F
IOWA CITY      LGT RAIN  40 N/A N/A W10       29.53R WCI  33
MUSCATINE *    LGT RAIN  39  37  93 NW15      29.51F WCI  31
QUAD CITIES    LGT RAIN  42  39  89 NW14      29.46F
$$

IAZ062-063-075>077-085>089-095>099-271000-
   SOUTHEAST IOWA

CITY           SKY/WX    TMP DP  RH WIND       PRES   REMARKS
BURLINGTON     LGT RAIN  40  39  97 NW8       29.51R WCI  34
FAIRFIELD *    CLOUDY    39  37  93 NW14      29.50F WCI  31
FORT MADISON * RAIN      39  39 100 NW12      29.52F WCI  32
KEOKUK *       LGT RAIN  41  39  93 W9G17     29.54R
OSKALOOSA *    CLOUDY    38  35  87 NW15      29.55F WCI  30
OTTUMWA        CLOUDY    40  36  86 NW13      29.54F WCI  32
WASHINGTON *   LGT RAIN  39  37  93 NW12G21   29.53F WCI  32
$$

ABBREVIATIONS USED IN REMARKS
   TC - TEMPERATURES IN CELSIUS
  WCI - WIND CHILL INDEX
   HX - HEAT INDEX
  VSB - VISIBILITY
$$





USA.gov is the U.S. government's official web portal to all federal, state and local government web resources and services.